OK1FET-6 Weather Reports


time (UTC)temp
C
wind
direction
speed
KPH
gust
KPH
rain 1hr
cm
rain 24hr
cm
rain mn
cm
humidity
%
barometer
mb
20260902024619 12 213 1.6 8.0 0.00 0.00 0.00 62 1021.0
20260902023621 12 161 0.0 6.4 0.00 0.00 0.00 62 1021.0
20260902022618 12 186 1.6 11.3 0.00 0.00 0.00 61 1021.0
20260902021620 12 203 3.2 14.5 0.00 0.00 0.00 61 1020.9
20260902020622 12 189 0.0 6.4 0.00 0.00 0.00 61 1020.9
20260902015624 12 177 0.0 3.2 0.00 0.00 0.00 61 1021.0
20260902014625 12 231 3.2 12.9 0.00 0.00 0.00 60 1020.9
20260902013627 12 176 0.0 3.2 0.00 0.00 0.00 60 1020.8
20260902012629 12 135 0.0 0.0 0.00 0.00 0.00 60 1020.7
20260902011632 12 205 0.0 6.4 0.00 0.00 0.00 59 1020.7
20260902010633 12 237 0.0 4.8 0.00 0.00 0.00 59 1020.6
20260902005635 13 192 0.0 9.7 0.00 0.00 0.00 58 1020.6
20260902004637 13 191 0.0 8.0 0.00 0.00 0.00 58 1020.7
20260902003639 13 214 4.8 11.3 0.00 0.00 0.00 58 1020.7
20260902002641 13 222 4.8 14.5 0.00 0.00 0.00 58 1020.7
20260902001643 13 221 4.8 11.3 0.00 0.00 0.00 58 1020.7
20260902000644 13 207 0.0 0.0 0.00 0.00 0.00 57 1020.8
20260901235646 13 190 1.6 9.7 0.00 0.00 0.00 57 1020.7
20260901234648 13 205 3.2 9.7 0.00 0.00 0.00 57 1020.7
20260901233650 13 178 0.0 9.7 0.00 0.00 0.00 56 1020.7
20260901232652 13 205 1.6 9.7 0.00 0.00 0.00 56 1020.7
20260901231654 13 217 3.2 11.3 0.00 0.00 0.00 56 1020.7
20260901230655 13 218 4.8 12.9 0.00 0.00 0.00 55 1020.8
20260901225657 13 210 1.6 9.7 0.00 0.00 0.00 55 1020.7
20260901224658 13 180 1.6 9.7 0.00 0.00 0.00 55 1020.8
20260901223700 14 218 1.6 4.8 0.00 0.00 0.00 54 1020.8
20260901222702 14 198 3.2 8.0 0.00 0.00 0.00 54 1020.8
20260901221704 14 220 3.2 9.7 0.00 0.00 0.00 54 1020.8
20260901220706 13 184 1.6 8.0 0.00 0.00 0.00 54 1020.8
20260901215707 13 160 0.0 1.6 0.00 0.00 0.00 53 1020.7
20260901214709 14 136 0.0 0.0 0.00 0.00 0.00 53 1020.8
20260901213711 14 228 0.0 0.0 0.00 0.00 0.00 53 1020.6
20260901212712 14 135 0.0 0.0 0.00 0.00 0.00 52 1020.5
20260901211713 14 126 0.0 0.0 0.00 0.00 0.00 52 1020.5
20260901210715 14 150 0.0 4.8 0.00 0.00 0.00 51 1020.4
20260901205717 15 152 0.0 0.0 0.00 0.00 0.00 51 1020.4
20260901204719 15 155 0.0 3.2 0.00 0.00 0.00 50 1020.3
20260901203721 15 135 0.0 0.0 0.00 0.00 0.00 50 1020.4
20260901202722 15 136 0.0 0.0 0.00 0.00 0.00 49 1020.4
20260901201724 15 135 0.0 0.0 0.00 0.00 0.00 49 1020.3
20260901200726 16 135 0.0 0.0 0.00 0.00 0.00 48 1020.4
20260901195728 16 135 0.0 0.0 0.00 0.00 0.00 47 1020.2
20260901194730 16 135 0.0 0.0 0.00 0.00 0.00 47 1020.2
20260901193732 16 135 0.0 0.0 0.00 0.00 0.00 46 1020.3
20260901192734 17 135 0.0 0.0 0.00 0.00 0.00 45 1020.1
20260901191735 17 135 0.0 0.0 0.00 0.00 0.00 45 1020.1
20260901190737 17 135 0.0 0.0 0.00 0.00 0.00 44 1020.0
20260901185739 17 135 0.0 0.0 0.00 0.00 0.00 44 1019.9
20260901184741 18 135 0.0 0.0 0.00 0.00 0.00 43 1019.9
20260901183743 18 135 0.0 0.0 0.00 0.00 0.00 42 1019.8
20260901182744 18 135 0.0 0.0 0.00 0.00 0.00 42 1019.6
20260901181747 19 135 0.0 0.0 0.00 0.00 0.00 41 1019.6
20260901180748 20 135 0.0 0.0 0.00 0.00 0.00 40 1019.4
20260901175750 20 140 0.0 0.0 0.00 0.00 0.00 40 1019.4
20260901174752 21 133 0.0 0.0 0.00 0.00 0.00 39 1019.3
20260901173751 21 137 0.0 4.8 0.00 0.00 0.00 38 1019.3
20260901172752 21 150 0.0 8.0 0.00 0.00 0.00 38 1019.3
20260901171754 22 216 1.6 12.9 0.00 0.00 0.00 37 1019.3
20260901170755 22 229 3.2 9.7 0.00 0.00 0.00 37 1019.2
20260901165757 23 233 8.0 24.1 0.00 0.00 0.00 36 1019.3
20260901164759 23 244 4.8 25.7 0.00 0.00 0.00 35 1019.3
20260901163801 24 262 3.2 12.9 0.00 0.00 0.00 35 1019.3
20260901162802 24 249 3.2 22.5 0.00 0.00 0.00 35 1019.3
20260901161804 25 265 9.7 17.7 0.00 0.00 0.00 34 1019.3
20260901160805 26 256 11.3 29.0 0.00 0.00 0.00 33 1019.3
20260901155807 27 256 4.8 11.3 0.00 0.00 0.00 32 1019.3
20260901154809 28 254 8.0 17.7 0.00 0.00 0.00 31 1019.4
20260901153811 31 262 3.2 9.7 0.00 0.00 0.00 30 1019.5
20260901152813 32 331 4.8 17.7 0.00 0.00 0.00 29 1019.6
20260901151814 34 72 3.2 9.7 0.00 0.00 0.00 27 1019.6
20260901150816 33 256 11.3 29.0 0.00 0.00 0.00 28 1019.7
20260901145818 35 284 9.7 24.1 0.00 0.00 0.00 27 1019.8
20260901144817 35 295 9.7 20.9 0.00 0.00 0.00 27 1019.9
20260901143818 35 257 8.0 19.3 0.00 0.00 0.00 27 1019.8
20260901142820 34 302 4.8 19.3 0.00 0.00 0.00 28 1019.9
20260901141818 36 269 12.9 33.8 0.00 0.00 0.00 26 1020.1
20260901140820 40 265 9.7 19.3 0.00 0.00 0.00 24 1020.2
20260901135821 40 261 14.5 25.7 0.00 0.00 0.00 25 1020.3
20260901134823 40 256 8.0 19.3 0.00 0.00 0.00 25 1020.3
20260901133825 38 287 9.7 20.9 0.00 0.00 0.00 26 1020.4
20260901132826 40 257 12.9 33.8 0.00 0.00 0.00 26 1020.5
20260901131828 40 284 14.5 33.8 0.00 0.00 0.00 26 1020.6
20260901130830 39 293 9.7 20.9 0.00 0.00 0.00 27 1020.6
20260901125831 35 319 12.9 29.0 0.00 0.00 0.00 30 1020.7
20260901124833 33 269 8.0 32.2 0.00 0.00 0.00 32 1020.7
20260901123835 33 287 9.7 24.1 0.00 0.00 0.00 32 1020.8
20260901122837 32 295 9.7 20.9 0.00 0.00 0.00 33 1020.8
20260901121839 29 282 12.9 29.0 0.00 0.00 0.00 36 1020.8
20260901120840 30 295 8.0 17.7 0.00 0.00 0.00 36 1020.8
20260901115841 30 291 9.7 20.9 0.00 0.00 0.00 36 1020.8
20260901114843 31 313 4.8 14.5 0.00 0.00 0.00 36 1020.9
20260901113844 32 257 14.5 32.2 0.00 0.00 0.00 34 1021.0
20260901112846 33 310 11.3 19.3 0.00 0.00 0.00 34 1021.0
20260901111848 31 260 6.4 16.1 0.00 0.00 0.00 37 1021.0
20260901110848 30 277 11.3 30.6 0.00 0.00 0.00 37 1020.9
20260901105850 31 265 8.0 19.3 0.00 0.00 0.00 36 1021.0
20260901104852 31 268 12.9 37.0 0.00 0.00 0.00 36 1021.1
20260901103854 30 333 11.3 24.1 0.00 0.00 0.00 37 1021.0
20260901102855 28 269 11.3 20.9 0.00 0.00 0.00 40 1021.1
20260901101857 29 272 11.3 24.1 0.00 0.00 0.00 39 1021.0
20260901100859 29 291 12.9 27.4 0.00 0.00 0.00 39 1021.0
20260901095901 28 302 11.3 33.8 0.00 0.00 0.00 41 1020.9
20260901094903 28 266 14.5 33.8 0.00 0.00 0.00 41 1020.9
20260901093905 29 279 9.7 20.9 0.00 0.00 0.00 41 1020.8
20260901092906 28 267 12.9 30.6 0.00 0.00 0.00 42 1020.9
20260901091908 27 289 8.0 20.9 0.00 0.00 0.00 43 1020.8
20260901090910 28 302 11.3 22.5 0.00 0.00 0.00 43 1020.9
20260901085912 27 308 12.9 33.8 0.00 0.00 0.00 44 1020.8
20260901084914 28 288 14.5 38.6 0.00 0.00 0.00 44 1020.8
20260901083915 28 319 11.3 25.7 0.00 0.00 0.00 45 1020.7
20260901082917 28 303 9.7 17.7 0.00 0.00 0.00 46 1020.7
20260901081918 28 299 11.3 27.4 0.00 0.00 0.00 46 1020.6
20260901080919 29 268 12.9 27.4 0.00 0.00 0.00 46 1020.4
20260901074923 27 272 9.7 25.7 0.00 0.00 0.00 49 1020.4
20260901073925 26 327 16.1 29.0 0.00 0.00 0.00 51 1020.3
20260901072927 25 302 9.7 20.9 0.00 0.05 0.00 54 1020.1
20260901071929 23 296 16.1 27.4 0.00 0.10 0.00 57 1020.1
20260901070931 23 274 12.9 32.2 0.00 0.18 0.00 58 1020.1
20260901065932 22 275 12.9 29.0 0.00 0.25 0.00 61 1020.2
20260901064934 19 251 9.7 20.9 0.00 0.46 0.00 66 1020.0
20260901063936 16 247 12.9 29.0 0.00 0.61 0.00 70 1019.9
20260901062938 16 255 9.7 37.0 0.00 1.12 0.00 70 1020.0
20260901061940 16 264 11.3 27.4 0.00 1.50 0.00 70 1019.8
20260901060941 16 282 11.3 27.4 0.00 1.63 0.00 70 1019.9
20260901055943 15 281 11.3 22.5 0.00 1.63 0.00 70 1019.8
20260901054945 15 260 11.3 33.8 0.00 1.63 0.00 70 1019.8
20260901053947 15 254 9.7 20.9 0.00 1.63 0.00 70 1019.7
20260901052949 15 252 6.4 17.7 0.00 1.63 0.00 70 1019.7
20260901051951 14 257 6.4 12.9 0.00 1.63 0.00 69 1019.6
20260901050953 14 227 4.8 17.7 0.00 1.63 0.00 69 1019.5
20260901045955 14 228 4.8 12.9 0.00 1.63 0.00 69 1019.5
20260901044956 15 200 0.0 4.8 0.00 1.63 0.00 68 1019.3
20260901043958 15 223 6.4 14.5 0.00 1.63 0.00 69 1019.2
20260901043000 15 234 6.4 16.1 0.00 1.63 0.00 68 1019.1
20260901042002 15 255 8.0 30.6 0.00 1.63 0.00 69 1019.0
20260901041004 15 257 11.3 20.9 0.00 1.63 0.00 68 1018.9
20260901040005 15 277 11.3 35.4 0.00 1.63 0.00 68 1018.9
20260901035007 15 272 16.1 38.6 0.00 1.63 0.00 68 1018.7
20260901034009 15 259 16.1 35.4 0.00 1.63 0.00 68 1018.8
20260901033011 15 258 16.1 29.0 0.00 1.63 0.00 67 1018.8
20260901032013 15 279 17.7 43.5 0.00 1.63 0.00 67 1018.6
20260901031015 15 259 14.5 29.0 0.00 1.63 0.00 66 1018.5
20260901030017 15 272 12.9 22.5 0.00 1.63 0.00 66 1018.7
20260901025019 15 277 11.3 24.1 0.00 1.63 0.00 65 1018.6